FENGYUN 1C DEB, 30145

Orbit data source: Space-Track

FENGYUN 1C DEB, 30145 is space debris in SSO originally from a launch on Mon, 10 May 1999 UTC launched from the Taiyaun Space Center, China (TSC). Fengyun 1C debris stems from the Chinese weather satellite Fengyun-1C, which was intentionally destroyed by a Chinese anti-satellite missile in 2007. This event dramatically increased the amount of space debris, with thousands of trackable fragments posing hazards to satellites and human spaceflight. The Fengyun 1C debris cloud has become a focal point in discussions about space sustainability and the need for international regulations to prevent the creation of new debris.

Loading next visibility...
Identifier
30145, 1999-025TA
Orbit
SSO
Country
Flag of CNCN / PRC
Related business
Manufacturer
Unknown
Mission
Spacecraft
Bus & Motor
Unknown
Mass
Unknown
Launch date (UTC)
1999-05-10 (27 years ago)
Launch vehicle
Unknown
Launch site
Taiyaun Space Center, China (TSC)
Object type
Payload
Rocket body
Debris
Shape & HBR
Unknown shape, 0.1 m
Radar Cross Section
Small (<0.1 m²)

Expand to show TLE details & history
Last TLE update: 23 hours ago

TLE from 23 hours ago
0 FENGYUN 1C DEB
1 30145U 99025TA  25346.55023934  .00008376  00000-0  42527-2 0  9995
2 30145  99.2691  96.1228 0091592 149.3297 222.1965 14.14023218961931
Epoch: 2025-12-12T13:12Z
TLE epoch observation values (Epoch: 2025-12-12T13:12:20.678Z)
Latitude
10.63397°
Longitude
174.79962°
Altitude
897.071 km
Speed
7.379 km/s
True Right ascension
06h 17m 30s
True Declination
10° 34' 23"
Sunlit
Object was in full shadow at epoch
Visualization orbit readout
Latitude
Unknown
Longitude
Unknown
Altitude
Unknown
Speed
Unknown
Apparent Right ascension
Unknown
Apparent Declination
Unknown
Sunlit
N/A
Visualization observer readout
Local Sidereal Time
10:40:53
Azimuth
Unknown
Elevation
Unknown
Doppler factor
Unknown
Orbital elements
Apogee altitude
908.969 km
Perigee altitude
776.692 km
Semi-major axis
7,220.968 km
Eccentricity
0.00916
Inclination
99.2691°
RAAN
96.1228°
Arg. of periapsis
149.3297°
True anomaly
221.49748°
Mean anomaly
222.1965°
Eccentric anomaly
221.8464°
Mean motion
3.53712 °/min
Orbital period
101.78 mins
BSTAR
0.0042527
Loading maneuver chart data...
Computing Atmospheric mass density...

Documentation

Showing up to 5 results
|